Location: Caltech
(34.1382°N, 118.1253°W)
Time: 14:29:46
(UTC-07:00)

COSMOS 2428 - Visible Passes

Search period start: 02 July 2015 00:00
Search period end: 12 July 2015 00:00
Orbit: 843 x 858 km, 71.0° (Epoch: 02 July)

Date Brightness Start Highest point End Pass type
(mag) Time Alt. Az. Time Alt. Az. Time Alt. Az.
02 Jul 3.8 01:10:28 10° NNW 01:14:08 38° NW 01:14:08 38° NW visible
02 Jul 4.6 23:15:09 10° NNE 23:19:00 19° NE 23:19:50 18° ENE visible
03 Jul 3.8 00:58:06 10° NNW 01:01:49 38° NW 01:01:49 38° NW visible
03 Jul 4.5 23:02:49 10° NNE 23:06:38 19° NE 23:07:34 18° ENE visible
04 Jul 3.7 00:45:44 10° NNW 00:49:32 40° NW 00:49:32 40° NW visible
04 Jul 4.5 22:50:28 10° NNE 22:54:16 18° NE 22:55:19 18° ENE visible
05 Jul 3.7 00:33:22 10° NNW 00:37:18 41° NW 00:37:18 41° NW visible
05 Jul 4.5 22:38:06 10° NNE 22:41:54 18° NE 22:43:06 18° ENE visible
06 Jul 3.6 00:21:01 10° NNW 00:25:05 43° WNW 00:25:05 43° WNW visible
06 Jul 4.5 22:25:45 10° NNE 22:29:32 18° NE 22:30:56 17° ENE visible
07 Jul 3.5 00:08:39 10° NNW 00:12:55 45° WNW 00:12:55 45° WNW visible
07 Jul 4.4 22:13:24 10° NNE 22:17:10 18° NE 22:18:47 17° ENE visible
07 Jul 3.4 23:56:17 10° NNW 00:00:46 48° WNW 00:00:46 48° WNW visible
08 Jul 4.4 22:01:03 10° NNE 22:04:48 18° NE 22:06:40 16° E visible
08 Jul 3.3 23:43:55 10° NNW 23:48:40 51° WNW 23:48:40 51° WNW visible
09 Jul 4.4 21:48:41 10° NNE 21:52:26 18° NE 21:54:35 15° E visible
09 Jul 3.2 23:31:33 10° NNW 23:36:35 54° W 23:36:35 54° W visible
10 Jul 4.5 21:36:20 10° NNE 21:40:05 18° NE 21:42:33 14° E visible
10 Jul 3.0 23:19:12 10° NNW 23:24:33 56° W 23:24:33 56° W visible
11 Jul 4.5 21:23:59 10° NNE 21:27:43 18° NE 21:30:32 13° E visible
11 Jul 3.0 23:06:50 10° NNW 23:12:26 57° WSW 23:12:32 57° WSW visible
